Kuiper-00075

operational
NORAD ID: 64822 Int'l Des: 2025-151 Owner: KUIP Country: US Constellation: kuiper
LEOCIRCULAR

Über Kuiper-00075

Beschreibung wird geladen...

Live-Position

3D-Globus wird geladen...

Nächste Überflüge

Höhenverlauf

Altitude vs Time

uPlot chart will show altitude changes over time

Zweizeiliger Elementsatz

1 64822U 25151G 25340.93194690 .00059080 00000-0 14594-2 0 9998
2 64822 51.8747 312.3120 0002837 335.0617 25.0234 15.39922574 22101
Epoch: 6. Dez. 2025 • Age: 11 hours

Aktueller Status

Höhe 444.6 km
Geschwindigkeit 7.65 km/s
Subsatellitenpunkt 9.61°N, 101.46°E
Startdatum 16. Juli 2025
Alter 0.3 years
Typ internet

Technische Details

Klassifizierung Payload
Masse 490.00 kg
Trockenmasse 490.00 kg
Gesamtmasse 490.00 kg
Länge 1.80 m
Durchmesser 0.70 m
Spannweite 5.00 m
Form Box + 2 pan
Hersteller KUIP
Bus-Typ Kuiper
Phasenstatus In Orbit
Besitzer/Staat KUIP/US

Große Konstellationen

Loading constellations...